User: anonymous   Login
Location: Prairie State College
(41.5244°N, 87.6382°W)
Time: 14:45:05
(UTC-05:00)
Language:

Cosmos 1140 Rocket - Orbit

View from above orbital plane
View from above orbital plane
View from above satellite
View from above satellite

Ground track
Ground track

The orbit data is extracted from the following two-line orbital elements,

1 11574U 79089B   15188.22200853  .00000167  00000-0  60642-4 0  9992
2 11574 074.0705 091.2330 0016061 181.0403 179.0721 14.40479859874762
Epoch (UTC): 07 July 2015 05:19:41
Eccentricity: 0.0016061
inclination: 74.0705°
perigee height: 745 km
apogee height: 768 km
right ascension of ascending node: 91.2330°
argument of perigee: 181.0403°
revolutions per day: 14.40479859
mean anomaly at epoch: 179.0721°
orbit number at epoch: 87476

The dashed part of the orbit path shows where the satellite is in the earth's shadow,  

DLR